STARLINK-2647, 48658

Orbit data source: Space-Track

STARLINK-2647, 48658 is a payload satellite owned by SpaceX/Seattle (US) in LEO that was launched on Wed, 26 May 2021 UTC via an FALCON 9 launch vehicle from the Air Force Eastern Test Range (AFETR). Payload-class satellites include a variety of spacecraft equipped with specific instruments for various scientific and technological missions. These include communications satellites like Starlink; space stations such as the ISS; scientific satellites like the Hubble; Earth observation satellites from companies like Planet Labs, Umbra, and HawkEye 360; GPS; miniature CubeSats for education and research; and military/defense satellites.

Loading next visibility...
Identifier
48658, 2021-044W
Orbit
LEO
Country
Flag of USUS
Related business
Manufacturer
SpaceX/Seattle
Mission
Operational Commercial Communications
Bus & Motor
STARLINK, Unknown motor
Mass
260 kg wet, ~248 kg dry
Launch date (UTC)
2021-05-26 (5 years ago)
Launch vehicle
FALCON 9
Launch site
Air Force Eastern Test Range (AFETR)
Object type
Payload
Rocket body
Debris
Shape & HBR
Box + 1 Pan, 10.1 m
Radar Cross Section
13.562 m², Large (>1 m²)

Expand to show TLE details & history
Last TLE update: 3 days ago

TLE from 3 days ago
0 STARLINK-2647
1 48658U 21044W   26170.81036471  .00002284  00000-0  85329-4 0  9995
2 48658  53.1604 359.3911 0000982  91.9696 268.1418 15.31707101279466
Epoch: 2026-06-19T19:26Z
TLE epoch observation values (Epoch: 2026-06-19T19:26:55.510Z)
Latitude
-0.00004°
Longitude
159.62578°
Altitude
471.641 km
Speed
7.631 km/s
True Right ascension
23h 57m 33s
True Declination
0° 00' 00"
Sunlit
Object was in daylight at epoch
Visualization orbit readout
Latitude
Unknown
Longitude
Unknown
Altitude
Unknown
Speed
Unknown
Apparent Right ascension
Unknown
Apparent Declination
Unknown
Sunlit
N/A
Visualization observer readout
Local Sidereal Time
21:36:49
Azimuth
Unknown
Elevation
Unknown
Doppler factor
Unknown
Orbital elements
Apogee altitude
471.648 km
Perigee altitude
470.303 km
Semi-major axis
6,849.112 km
Eccentricity
0.0001
Inclination
53.1604°
RAAN
359.3911°
Arg. of periapsis
91.9696°
True anomaly
268.13055°
Mean anomaly
268.1418°
Eccentric anomaly
268.13618°
Mean motion
3.82906 °/min
Orbital period
94.02 mins
BSTAR
0.000085329
Loading maneuver chart data...
Computing Atmospheric mass density...
Loading historical data...
Loading historical data...
Loading historical data...
Loading historical data...
Loading historical data...
Loading historical data...
Loading historical data...

Documentation

Showing up to 5 results
|